Location: *
(46.0770°N, 1.6444°E)
Time: 07:08:05
(UTC+00:00)

Cosmos 2056 Rocket - Pass Details

Date: 16 September 2019
Orbit: 742 x 800 km, 74.0° (Epoch: 15 October)

Event Time Altitude Azimuth Distance (km) Brightness Sun altitude
Rises 20:59:34 0° 218° (SW) 3,295 6.8 -28.8°
Reaches altitude 10° 21:02:03 10° 224° (SW) 2,371 6.0 -29.2°
Maximum altitude 21:07:15 47° 298° (WNW) 1,053 4.5 -29.8°
Drops below altitude 10° 21:12:29 10° 12° (NNE) 2,377 6.4 -30.5°
Sets 21:14:59 0° 18° (NNE) 3,305 7.1 -30.8°
